DLH90T LOWI-EDDS

Flight info

Callsign DLH90T
Flight time 0h 32m
Altitude 24000
Route KOGOL M726 MAH L173 DODIL T127 TEKSI TEKSI1W
Aircraft A320/M-SDE3FGHIRWY/LB1

Departure

Time 2026-05-05 18:49
Airport Innsbruck Airport (LOWI)

Arrival

Time 2026-05-05 19:21
Airport Stuttgart Airport (EDDS)
Time Latitude Longitude Altitude Speed Heading
2026-05-05 18:26 47.25797 11.34812 1907 ft 0 kts 171°
2026-05-05 18:40 47.25805 11.34810 1907 ft 4 kts 173°
2026-05-05 18:40 47.25831 11.34810 1901 ft 4 kts 195°
2026-05-05 18:41 47.25852 11.34827 1903 ft 4 kts 247°
2026-05-05 18:41 47.25854 11.34837 1898 ft 0 kts 261°
2026-05-05 18:43 47.25852 11.34812 1899 ft 7 kts 261°
2026-05-05 18:43 47.25844 11.34745 1899 ft 6 kts 261°
2026-05-05 18:44 47.25838 11.34688 1905 ft 8 kts 261°
2026-05-05 18:44 47.25823 11.34549 1907 ft 15 kts 261°
2026-05-05 18:44 47.25806 11.34402 1895 ft 14 kts 260°
2026-05-05 18:44 47.25791 11.34273 1902 ft 12 kts 260°
2026-05-05 18:45 47.25778 11.34161 1895 ft 10 kts 261°
2026-05-05 18:45 47.25770 11.34066 1907 ft 9 kts 264°
2026-05-05 18:45 47.25772 11.33986 1902 ft 7 kts 280°
2026-05-05 18:45 47.25788 11.33927 1900 ft 5 kts 302°
2026-05-05 18:46 47.25807 11.33883 1905 ft 1 kts 303°
2026-05-05 18:46 47.25816 11.33863 1899 ft 9 kts 304°
2026-05-05 18:46 47.25887 11.33725 1900 ft 20 kts 307°
2026-05-05 18:47 47.25928 11.33555 1908 ft 18 kts 263°
2026-05-05 18:47 47.25898 11.33323 1901 ft 20 kts 246°
2026-05-05 18:47 47.25837 11.33138 1899 ft 16 kts 265°
2026-05-05 18:47 47.25884 11.33122 1895 ft 9 kts 70°
2026-05-05 18:48 47.25885 11.33137 1903 ft 0 kts 83°
2026-05-05 18:48 47.25892 11.33211 1905 ft 36 kts 83°
2026-05-05 18:48 47.25975 11.33959 1909 ft 108 kts 82°
2026-05-05 18:48 47.26120 11.35321 2009 ft 152 kts 85°
2026-05-05 18:49 47.26276 11.36833 2821 ft 148 kts 83°
2026-05-05 18:49 47.26428 11.38350 3392 ft 154 kts 83°
2026-05-05 18:49 47.26594 11.40013 3622 ft 175 kts 83°
2026-05-05 18:49 47.26782 11.41897 3806 ft 197 kts 84°
2026-05-05 18:50 47.26999 11.44009 3992 ft 220 kts 80°
2026-05-05 18:50 47.27458 11.46266 4265 ft 246 kts 72°
2026-05-05 18:50 47.28105 11.48760 4829 ft 265 kts 71°
2026-05-05 18:50 47.28841 11.51303 5591 ft 274 kts 68°
2026-05-05 18:51 47.29604 11.53874 6389 ft 281 kts 68°
2026-05-05 18:51 47.30392 11.56534 7203 ft 286 kts 68°
2026-05-05 18:51 47.31189 11.59255 8025 ft 291 kts 69°
2026-05-05 18:51 47.31992 11.62030 8840 ft 296 kts 68°
2026-05-05 18:52 47.32810 11.64860 9247 ft 302 kts 68°
2026-05-05 18:52 47.33632 11.67701 9349 ft 301 kts 68°
2026-05-05 18:52 47.34454 11.70545 9356 ft 302 kts 68°
2026-05-05 18:52 47.35277 11.73402 9367 ft 305 kts 69°
2026-05-05 18:53 47.36098 11.76262 10084 ft 308 kts 68°
2026-05-05 18:53 47.36963 11.79280 10373 ft 331 kts 68°
2026-05-05 18:53 47.37890 11.82516 10574 ft 354 kts 67°
2026-05-05 18:53 47.38879 11.85962 10730 ft 375 kts 68°
2026-05-05 18:54 47.39914 11.89572 11201 ft 386 kts 67°
2026-05-05 18:54 47.41251 11.93001 11929 ft 389 kts 51°
2026-05-05 18:54 47.43233 11.95717 12627 ft 391 kts 32°
2026-05-05 18:54 47.45700 11.97392 13297 ft 391 kts 13°
2026-05-05 18:55 47.48390 11.97810 13929 ft 390 kts 354°
2026-05-05 18:55 47.51031 11.96951 14502 ft 389 kts 335°
2026-05-05 18:55 47.53348 11.94940 15053 ft 387 kts 317°
2026-05-05 18:55 47.55118 11.91981 15621 ft 385 kts 299°
2026-05-05 18:56 47.56185 11.88377 16216 ft 383 kts 282°
2026-05-05 18:56 47.56733 11.84510 16808 ft 384 kts 282°
2026-05-05 18:56 47.57745 11.80832 17381 ft 392 kts 298°
2026-05-05 18:56 47.59475 11.77670 17899 ft 399 kts 310°
2026-05-05 18:57 47.61400 11.74657 18334 ft 404 kts 310°
2026-05-05 18:57 47.63353 11.71635 18784 ft 409 kts 310°
2026-05-05 18:57 47.65339 11.68570 19223 ft 413 kts 310°
2026-05-05 18:57 47.67337 11.65484 19667 ft 416 kts 310°
2026-05-05 18:58 47.69343 11.62368 20112 ft 419 kts 310°
2026-05-05 18:58 47.71357 11.59226 20564 ft 422 kts 310°
2026-05-05 18:58 47.73386 11.56046 21004 ft 425 kts 310°
2026-05-05 18:58 47.75442 11.52859 21438 ft 428 kts 310°
2026-05-05 18:59 47.77526 11.49676 21862 ft 431 kts 310°
2026-05-05 18:59 47.79635 11.46483 22265 ft 434 kts 310°
2026-05-05 18:59 47.81763 11.43267 22655 ft 438 kts 310°
2026-05-05 18:59 47.83910 11.40015 22997 ft 442 kts 310°
2026-05-05 19:00 47.86073 11.36733 23380 ft 445 kts 310°
2026-05-05 19:00 47.88244 11.33427 23702 ft 448 kts 310°
2026-05-05 19:00 47.90426 11.30094 23820 ft 451 kts 310°
2026-05-05 19:00 47.92642 11.26695 23845 ft 461 kts 310°
2026-05-05 19:01 47.94861 11.23281 23860 ft 466 kts 310°
2026-05-05 19:01 47.97154 11.19757 23858 ft 467 kts 310°
2026-05-05 19:01 47.99420 11.16276 23859 ft 468 kts 310°
2026-05-05 19:01 48.01686 11.12792 23847 ft 468 kts 310°
2026-05-05 19:02 48.03951 11.09300 23858 ft 468 kts 310°
2026-05-05 19:02 48.06217 11.05798 23841 ft 468 kts 310°
2026-05-05 19:02 48.08483 11.02296 23842 ft 469 kts 310°
2026-05-05 19:02 48.10748 10.98793 23840 ft 468 kts 310°
2026-05-05 19:03 48.13015 10.95285 23838 ft 468 kts 311°
2026-05-05 19:03 48.15248 10.91821 23716 ft 469 kts 311°
2026-05-05 19:03 48.17515 10.88297 22793 ft 469 kts 311°
2026-05-05 19:03 48.19040 10.85920 22142 ft 467 kts 311°
2026-05-05 19:04 48.21994 10.81308 21060 ft 460 kts 311°
2026-05-05 19:04 48.24194 10.77868 20307 ft 454 kts 311°
2026-05-05 19:04 48.26375 10.74462 19607 ft 449 kts 311°
2026-05-05 19:04 48.27830 10.72187 19131 ft 446 kts 311°
2026-05-05 19:05 48.29971 10.68833 18446 ft 441 kts 311°
2026-05-05 19:05 48.32082 10.65520 17736 ft 437 kts 311°
2026-05-05 19:05 48.34170 10.62245 17015 ft 432 kts 311°
2026-05-05 19:05 48.36237 10.58999 16325 ft 427 kts 311°
2026-05-05 19:06 48.38279 10.55788 15654 ft 422 kts 311°
2026-05-05 19:06 48.40297 10.52609 14999 ft 417 kts 311°
2026-05-05 19:06 48.42288 10.49468 14351 ft 413 kts 311°
2026-05-05 19:06 48.44237 10.46388 13719 ft 408 kts 311°
2026-05-05 19:07 48.46185 10.43305 13030 ft 404 kts 311°
2026-05-05 19:07 48.48105 10.40264 12661 ft 392 kts 310°
2026-05-05 19:07 48.49941 10.37357 12528 ft 375 kts 310°
2026-05-05 19:07 48.51700 10.34571 12396 ft 359 kts 310°
2026-05-05 19:08 48.53384 10.31902 12269 ft 344 kts 309°
2026-05-05 19:08 48.55000 10.29331 12092 ft 332 kts 309°
2026-05-05 19:08 48.56602 10.26764 11668 ft 350 kts 309°
2026-05-05 19:08 48.58259 10.24098 11421 ft 339 kts 309°
2026-05-05 19:09 48.59818 10.21618 11288 ft 313 kts 309°
2026-05-05 19:09 48.61203 10.19249 11054 ft 290 kts 299°
2026-05-05 19:09 48.62026 10.16574 10855 ft 278 kts 284°
2026-05-05 19:09 48.62633 10.13785 10864 ft 280 kts 284°
2026-05-05 19:10 48.63243 10.10991 10822 ft 279 kts 284°
2026-05-05 19:10 48.63848 10.08218 10524 ft 277 kts 284°
2026-05-05 19:10 48.64446 10.05465 10208 ft 274 kts 284°
2026-05-05 19:10 48.65034 10.02740 9929 ft 271 kts 283°
2026-05-05 19:11 48.65614 10.00049 9609 ft 268 kts 283°
2026-05-05 19:11 48.66191 9.97366 9249 ft 267 kts 283°
2026-05-05 19:11 48.66763 9.94706 8888 ft 264 kts 283°
2026-05-05 19:11 48.67329 9.92071 8524 ft 263 kts 283°
2026-05-05 19:12 48.67891 9.89443 8142 ft 262 kts 283°
2026-05-05 19:12 48.68451 9.86823 7752 ft 261 kts 283°
2026-05-05 19:12 48.69009 9.84212 7386 ft 260 kts 283°
2026-05-05 19:12 48.69562 9.81619 7035 ft 258 kts 284°
2026-05-05 19:13 48.70111 9.79045 6665 ft 257 kts 284°
2026-05-05 19:13 48.70659 9.76471 6251 ft 257 kts 284°
2026-05-05 19:13 48.71201 9.73917 6031 ft 250 kts 284°
2026-05-05 19:13 48.71711 9.71523 6003 ft 234 kts 284°
2026-05-05 19:14 48.72205 9.69212 6020 ft 224 kts 284°
2026-05-05 19:14 48.72679 9.66977 5692 ft 230 kts 284°
2026-05-05 19:14 48.73160 9.64686 5461 ft 224 kts 284°
2026-05-05 19:14 48.73627 9.62471 5302 ft 216 kts 284°
2026-05-05 19:15 48.74076 9.60349 5187 ft 208 kts 284°
2026-05-05 19:15 48.74509 9.58305 5083 ft 199 kts 284°
2026-05-05 19:15 48.74916 9.56378 5023 ft 185 kts 282°
2026-05-05 19:15 48.75172 9.54576 5019 ft 166 kts 266°
2026-05-05 19:16 48.74780 9.52973 4973 ft 163 kts 244°
2026-05-05 19:16 48.74433 9.51343 4816 ft 163 kts 255°
2026-05-05 19:16 48.74140 9.49689 4613 ft 162 kts 254°
2026-05-05 19:16 48.73841 9.48051 4383 ft 161 kts 253°
2026-05-05 19:17 48.73538 9.46412 4181 ft 161 kts 253°
2026-05-05 19:17 48.73231 9.44765 3960 ft 162 kts 253°
2026-05-05 19:17 48.72939 9.43203 3746 ft 150 kts 253°
2026-05-05 19:17 48.72657 9.41692 3559 ft 155 kts 253°
2026-05-05 19:18 48.72354 9.40081 3341 ft 161 kts 253°
2026-05-05 19:18 48.72047 9.38438 3128 ft 163 kts 253°
2026-05-05 19:18 48.71741 9.36808 2898 ft 155 kts 253°
2026-05-05 19:18 48.71461 9.35314 2699 ft 143 kts 253°
2026-05-05 19:19 48.71193 9.33891 2512 ft 139 kts 253°
2026-05-05 19:19 48.70935 9.32498 2334 ft 137 kts 253°
2026-05-05 19:19 48.70671 9.31116 2122 ft 137 kts 253°
2026-05-05 19:19 48.70409 9.29720 1926 ft 139 kts 253°
2026-05-05 19:20 48.70143 9.28314 1742 ft 140 kts 254°
2026-05-05 19:20 48.69873 9.26895 1558 ft 140 kts 253°
2026-05-05 19:20 48.69608 9.25482 1407 ft 139 kts 253°
2026-05-05 19:20 48.69342 9.24081 1217 ft 137 kts 253°
2026-05-05 19:21 48.69109 9.22845 1227 ft 102 kts 254°
2026-05-05 19:21 48.68963 9.22075 1245 ft 43 kts 255°
2026-05-05 19:21 48.68952 9.21713 1254 ft 30 kts 279°
2026-05-05 19:21 48.68987 9.21475 1262 ft 17 kts 284°
2026-05-05 19:22 48.68996 9.21313 1262 ft 15 kts 256°
2026-05-05 19:22 48.68968 9.21167 1268 ft 14 kts 253°
2026-05-05 19:22 48.68941 9.21030 1273 ft 13 kts 253°
2026-05-05 19:22 48.68911 9.20876 1272 ft 15 kts 253°
2026-05-05 19:23 48.68909 9.20717 1276 ft 19 kts 298°
2026-05-05 19:23 48.68998 9.20571 1278 ft 18 kts 315°
2026-05-05 19:23 48.69058 9.20430 1281 ft 16 kts 268°
2026-05-05 19:23 48.69031 9.20277 1286 ft 15 kts 253°
2026-05-05 19:24 48.68999 9.20141 1287 ft 13 kts 231°
2026-05-05 19:24 48.68960 9.20143 1289 ft 6 kts 161°
2026-05-05 19:24 48.68930 9.20157 1285 ft 0 kts 164°